Wind_Speed
33 29 26 32 34 36 35 37 36 32 35 38 38 40 40 42 43 43 45 46 47 47 46 47 45 42 43 45 46 49 52 56 57 56 53 52 53 51 52 54 53 51 48 48
38 35 30 33 36 38 39 39 38 39 40 42 41 42 44 45 48 49 51 50 50 49 47 46 46 46 46 47 48 51 55 57 57 55 54 54 51 53 52 50 49 46 46 48
39 36 36 37 38 41 43 44 44 45 46 46 46 44 46 49 51 52 52 51 51 52 51 50 48 49 50 51 51 52 54 53 54 55 51 48 48 47 47 46 45 45 45 45
45 44 44 45 44 45 46 48 51 51 50 50 51 52 51 50 52 52 53 52 50 50 50 49 48 48 47 45 46 48 52 56 58 51 46 41 41 46 45 40 35 38 36 38
46 46 46 46 47 49 51 52 53 53 55 56 56 56 55 54 49 47 46 45 45 44 44 45 46 46 46 48 50 52 48 41 38 40 39 41 44 45 31 34 36 36 37 39
45 48 49 50 50 51 52 52 52 52 52 56 52 52 57 51 47 43 43 44 45 46 44 44 44 42 41 40 39 39 37 37 38 33 39 37 33 30 31 31 34 36 37 38
43 43 45 46 46 46 46 45 47 50 49 50 51 52 51 50 49 45 43 41 36 36 35 35 35 35 37 36 38 38 35 35 37 38 32 32 31 32 33 35 35 35 37 41
39 41 41 41 42 42 40 40 40 43 45 46 48 51 51 51 45 42 38 35 35 34 33 32 33 36 39 40 37 38 40 39 42 45 35 35 34 33 35 36 34 34 37 38
40 38 38 38 38 38 37 36 37 38 40 43 45 44 44 41 37 34 33 35 36 36 34 33 33 33 35 34 33 33 36 37 32 28 32 33 34 35 34 33 34 36 38 41
39 39 38 38 38 37 36 37 35 35 37 41 43 43 41 37 34 34 35 37 35 32 29 27 29 28 27 28 27 28 29 29 28 29 30 30 32 35 36 36 37 38 39 37
41 41 39 38 37 36 35 37 37 37 39 40 42 42 39 36 35 37 38 36 35 31 29 29 29 27 25 25 26 28 30 31 30 30 30 33 34 34 33 34 35 35 34 35
43 44 43 41 40 39 35 35 34 36 37 38 40 42 40 37 37 37 35 34 32 30 31 28 27 22 27 27 29 32 34 34 31 32 33 32 30 31 33 33 32 30 29 24
43 45 45 45 44 42 42 41 39 38 38 42 44 42 36 37 37 37 36 36 32 31 33 33 28 30 31 31 34 35 36 36 34 34 34 32 32 31 30 29 28 23 21 19
46 46 46 47 46 46 45 44 41 42 45 42 44 38 31 33 36 34 36 36 35 31 30 32 32 32 33 35 36 36 37 33 29 29 31 32 31 28 24 24 21 18 17 20
48 49 49 49 49 49 48 46 44 45 46 45 40 37 29 30 32 34 34 35 32 30 31 31 33 35 35 34 33 31 29 26 26 29 31 30 24 21 20 18 16 16 18 19
49 50 51 52 51 49 50 47 46 44 42 42 37 36 25 31 32 31 30 30 31 31 33 35 35 34 31 27 25 24 24 27 29 30 29 23 19 18 15 14 14 16 18 20
49 48 48 51 48 47 50 46 41 40 37 38 36 29 28 28 29 30 29 30 31 33 32 33 31 26 22 22 21 25 28 30 30 29 21 19 16 13 11 12 14 16 19 20
38 44 44 40 41 45 43 37 34 28 30 29 30 26 26 27 27 28 29 29 29 28 25 21 20 22 22 24 26 29 30 29 26 21 18 15 12 10 12 13 15 17 19 20
29 31 30 38 41 33 29 34 28 24 19 24 24 21 20 21 22 25 23 23 20 15 15 17 21 22 23 23 25 27 24 22 21 19 16 12 10 11 12 14 16 17 18 21
27 31 33 33 36 34 28 24 18 20 16 20 19 18 18 21 21 19 16 14 14 17 19 18 18 20 22 25 25 22 21 21 20 18 15 11 11 11 13 15 16 18 19 21
26 34 33 31 35 36 26 19 22 22 15 20 16 18 17 16 13 13 13 15 17 18 19 20 21 22 22 22 21 21 20 19 19 19 15 14 12 12 14 16 18 19 21 22
30 33 36 34 36 37 27 20 19 20 18 20 20 18 15 15 15 14 15 16 17 19 20 22 22 21 21 19 18 17 17 18 19 18 16 14 13 15 16 18 20 21 23 24
36 33 34 33 29 26 17 12 15 18 17 18 22 21 17 16 14 14 16 16 18 18 20 18 18 18 18 16 16 15 17 19 20 19 18 16 15 17 18 22 25 26 26 27
34 27 28 25 20 22 18 17 21 15 9 18 22 20 20 18 18 20 17 17 17 21 21 17 18 17 16 15 15 16 17 19 19 19 19 18 19 20 23 26 29 29 30 32
22 21 21 21 20 22 26 23 17 18 17 15 19 19 21 20 18 14 16 19 20 20 19 18 18 17 17 16 16 17 18 19 20 21 20 20 21 23 26 28 29 30 32 33
18 21 24 25 25 33 25 26 21 17 17 15 16 20 22 16 16 16 17 18 19 19 20 20 18 18 18 18 18 17 18 20 20 20 21 22 23 25 27 28 29 30 32 32
Wind_Direction
291 282 267 264 264 265 266 268 269 272 272 272 274 276 274 275 276 275 274 272 271 270 271 273 274 270 267 268 269 271 272 273 276 281 287 289 290 290 290 292 294 294 290 288
288 283 267 263 267 268 269 268 270 269 265 268 268 268 269 269 270 269 268 267 267 267 268 269 270 269 269 270 270 273 276 280 284 287 286 286 286 287 288 289 289 289 290 291
284 283 279 273 267 266 269 271 269 270 269 268 267 266 263 264 266 267 268 269 271 272 272 272 271 271 272 273 275 277 279 279 281 282 284 287 285 286 287 287 289 290 293 296
283 280 276 275 269 266 265 263 267 268 268 268 267 269 269 266 266 267 270 271 272 273 273 274 275 274 275 275 276 275 273 276 279 280 283 286 281 280 282 288 291 297 294 291
275 275 274 271 269 268 268 268 266 265 267 268 269 271 272 270 271 273 275 275 275 274 274 274 274 275 276 275 274 275 278 281 286 287 278 271 269 276 287 293 295 294 291 290
274 273 274 273 272 271 271 270 271 270 270 269 274 275 271 281 285 286 284 281 280 281 282 280 278 277 279 280 281 286 289 284 278 270 273 280 286 295 296 290 289 290 294 294
269 271 272 273 276 276 278 279 279 276 277 278 279 280 282 287 288 291 290 290 286 283 281 281 282 280 280 278 275 270 265 270 272 269 282 291 296 293 286 288 292 294 295 294
266 267 267 267 272 275 277 277 278 281 281 283 285 284 287 288 290 291 290 289 290 287 282 277 271 271 272 273 274 275 275 279 277 282 291 291 284 283 287 291 294 294 299 300
271 266 265 266 268 271 273 275 276 279 282 285 286 287 287 291 294 290 288 290 288 285 282 274 268 266 270 274 271 270 275 281 291 285 281 281 285 287 291 290 291 295 296 301
269 267 265 266 268 271 275 275 276 277 281 284 284 285 290 291 287 285 287 285 283 283 280 274 270 268 273 277 279 280 282 284 283 280 277 280 279 279 284 288 291 295 299 301
268 266 267 266 265 266 270 273 274 276 280 284 285 281 286 288 287 287 285 284 286 285 279 270 271 275 280 282 279 280 281 278 272 272 276 277 281 287 289 291 293 297 299 299
271 271 268 268 269 268 267 267 266 269 278 278 283 289 288 288 285 285 287 288 286 279 271 269 271 277 280 282 284 283 281 280 275 271 281 283 280 288 289 292 295 295 297 303
269 270 271 271 270 271 270 269 269 270 271 274 276 289 293 287 289 289 285 281 275 266 264 268 278 272 276 279 278 278 278 281 282 274 279 281 284 289 290 291 290 295 300 310
267 267 267 269 271 272 274 275 277 276 276 277 280 284 280 278 278 277 273 273 277 278 271 268 269 271 274 273 279 279 276 281 276 275 281 285 287 286 285 285 290 293 307 318
263 264 265 266 268 270 272 275 275 277 281 282 287 280 274 277 269 268 273 275 274 271 270 268 268 270 275 279 276 271 271 270 273 278 283 284 281 277 282 286 288 303 315 316
260 262 263 264 266 269 273 276 281 283 282 282 283 282 285 270 273 271 270 270 273 274 272 273 275 275 274 271 267 264 262 275 274 279 278 277 271 277 278 285 300 310 314 319
263 264 265 267 271 272 274 280 281 277 278 278 277 278 274 272 273 274 276 273 270 269 271 270 271 266 259 265 266 268 271 272 271 273 268 265 269 267 280 293 306 313 315 318
261 267 269 274 274 276 281 278 275 274 273 271 273 276 273 276 279 278 274 273 274 272 270 265 259 259 263 272 273 270 267 266 264 259 258 257 256 272 283 296 309 313 319 320
272 272 270 268 274 275 270 273 280 271 266 269 274 270 272 276 274 269 277 274 266 256 259 258 266 270 272 269 273 269 260 255 252 251 245 241 258 274 291 308 313 314 315 315
264 262 265 269 274 269 266 276 267 260 254 257 268 273 274 273 271 269 273 273 264 261 272 273 283 270 268 275 271 262 254 251 246 239 232 240 258 282 304 311 311 313 314 315
269 259 262 268 277 273 276 268 264 257 257 249 248 262 277 273 253 245 257 269 272 271 278 273 281 274 271 274 267 262 252 244 239 233 233 244 261 284 297 302 302 302 307 310
267 271 269 269 281 278 272 270 263 257 250 250 242 249 264 269 263 247 272 284 286 284 282 278 277 269 274 269 266 255 246 243 239 239 244 252 266 280 290 297 295 295 299 302
274 275 271 271 278 267 260 257 254 255 254 252 241 245 257 261 262 264 271 282 289 291 292 281 271 270 272 268 262 253 250 248 246 247 252 257 270 282 292 294 294 292 291 293
266 265 266 262 257 247 242 274 251 262 258 256 249 248 253 256 264 277 270 284 297 295 292 281 271 274 275 268 263 256 256 257 256 256 257 264 274 280 285 289 291 292 291 291
250 251 254 242 247 246 246 260 264 255 262 285 247 245 248 257 266 268 272 282 292 297 294 287 276 271 275 271 267 262 258 259 259 258 259 266 275 281 286 291 294 292 292 294
246 252 250 252 257 255 243 254 261 256 261 273 264 264 255 247 261 274 287 288 291 298 299 293 284 277 273 272 268 265 261 261 262 263 263 271 280 286 289 292 294 295 294 294
Height
5757 5758 5759 5755 5753 5753 5752 5753 5753 5754 5754 5752 5752 5750 5749 5746 5746 5746 5744 5743 5741 5740 5738 5738 5739 5740 5739 5738 5736 5733 5729 5726 5723 5722 5722 5721 5718 5714 5711 5709 5707 5705 5703 5700
5746 5746 5747 5745 5744 5743 5742 5741 5743 5744 5742 5741 5742 5741 5740 5739 5735 5733 5731 5731 5730 5728 5728 5728 5728 5727 5727 5725 5723 5721 5718 5715 5714 5713 5713 5710 5707 5703 5701 5698 5696 5694 5692 5689
5735 5736 5735 5736 5734 5732 5732 5730 5729 5728 5729 5728 5727 5728 5728 5726 5725 5723 5721 5719 5718 5717 5716 5716 5716 5716 5714 5713 5711 5708 5706 5705 5703 5701 5699 5697 5694 5692 5690 5688 5686 5684 5681 5678
5725 5724 5723 5722 5722 5721 5719 5718 5716 5714 5714 5715 5714 5713 5714 5715 5713 5712 5711 5709 5708 5707 5705 5705 5705 5703 5702 5700 5698 5696 5694 5692 5690 5689 5687 5685 5683 5682 5680 5678 5676 5673 5669 5666
5713 5711 5710 5709 5707 5707 5707 5705 5705 5704 5702 5700 5700 5699 5700 5699 5700 5699 5698 5697 5694 5694 5694 5693 5691 5689 5689 5686 5684 5683 5682 5680 5679 5677 5677 5675 5673 5671 5670 5668 5665 5662 5658 5655
5702 5701 5700 5698 5695 5694 5694 5694 5691 5691 5691 5691 5691 5688 5689 5689 5688 5687 5686 5685 5683 5681 5681 5680 5679 5677 5675 5674 5673 5672 5671 5669 5669 5668 5665 5664 5663 5663 5661 5658 5655 5650 5647 5645
5693 5692 5690 5688 5685 5682 5682 5681 5679 5680 5679 5681 5679 5680 5684 5680 5676 5674 5672 5671 5671 5671 5671 5670 5669 5667 5665 5664 5664 5663 5662 5661 5659 5658 5656 5655 5654 5653 5651 5648 5644 5641 5639 5636
5683 5683 5679 5678 5676 5674 5673 5672 5670 5667 5668 5671 5670 5671 5672 5668 5667 5664 5663 5661 5660 5661 5660 5660 5659 5657 5656 5655 5653 5653 5651 5651 5650 5648 5647 5646 5645 5642 5640 5638 5635 5633 5630 5627
5669 5671 5669 5667 5666 5666 5665 5663 5661 5659 5660 5659 5661 5662 5662 5659 5658 5657 5655 5652 5652 5650 5650 5649 5648 5649 5648 5646 5645 5644 5644 5642 5641 5640 5638 5636 5634 5633 5632 5630 5627 5625 5621 5617
5659 5658 5658 5656 5655 5655 5654 5653 5652 5650 5650 5649 5652 5652 5650 5650 5650 5649 5647 5643 5642 5641 5641 5641 5640 5640 5639 5638 5638 5637 5635 5634 5632 5631 5629 5627 5627 5626 5624 5622 5619 5615 5612 5607
5648 5647 5648 5646 5646 5645 5644 5643 5642 5641 5640 5638 5640 5643 5641 5640 5640 5638 5637 5636 5635 5632 5632 5632 5631 5631 5631 5629 5628 5627 5626 5626 5624 5622 5621 5620 5619 5617 5615 5612 5610 5606 5602 5599
5635 5633 5634 5635 5635 5633 5634 5634 5634 5631 5632 5628 5627 5633 5630 5630 5629 5628 5627 5625 5624 5624 5622 5622 5623 5623 5621 5620 5619 5618 5616 5615 5615 5613 5612 5611 5610 5608 5606 5603 5600 5597 5595 5592
5622 5620 5621 5622 5623 5622 5622 5623 5623 5623 5621 5619 5616 5622 5622 5617 5616 5615 5615 5614 5614 5613 5613 5613 5614 5613 5612 5611 5610 5608 5607 5606 5605 5605 5603 5602 5601 5599 5597 5595 5593 5591 5588 5586
5608 5608 5609 5609 5609 5608 5609 5611 5611 5610 5607 5607 5610 5610 5615 5609 5606 5606 5603 5603 5602 5603 5603 5604 5604 5603 5602 5601 5600 5599 5597 5597 5597 5596 5595 5593 5592 5591 5589 5588 5587 5585 5582 5580
5595 5595 5596 5597 5597 5595 5597 5598 5598 5597 5595 5594 5601 5597 5602 5597 5595 5594 5594 5593 5592 5593 5593 5593 5593 5592 5592 5591 5589 5588 5589 5589 5588 5588 5587 5585 5584 5583 5583 5582 5581 5579 5577 5575
5582 5581 5582 5584 5584 5584 5585 5588 5588 5587 5585 5582 5586 5588 5587 5584 5584 5584 5584 5584 5583 5583 5582 5582 5582 5582 5582 5581 5580 5580 5581 5582 5582 5580 5579 5579 5578 5577 5577 5576 5575 5573 5571 5569
5571 5571 5570 5572 5573 5573 5576 5579 5578 5576 5575 5573 5575 5579 5575 5575 5575 5574 5575 5574 5574 5573 5573 5573 5573 5573 5573 5573 5572 5573 5573 5573 5574 5572 5572 5572 5572 5572 5571 5570 5569 5567 5565 5563
5563 5561 5560 5561 5562 5562 5567 5566 5565 5564 5567 5562 5565 5567 5566 5566 5566 5565 5564 5565 5565 5565 5564 5564 5565 5566 5565 5565 5565 5565 5565 5565 5565 5565 5566 5566 5566 5566 5566 5565 5563 5562 5560 5558
5552 5552 5552 5552 5553 5554 5555 5555 5556 5556 5560 5555 5557 5558 5558 5558 5557 5557 5557 5557 5557 5558 5558 5558 5558 5558 5558 5557 5558 5557 5557 5558 5558 5559 5560 5561 5561 5561 5560 5559 5558 5556 5554 5553
5545 5545 5545 5544 5543 5543 5545 5547 5547 5548 5551 5551 5551 5552 5552 5552 5551 5551 5551 5551 5552 5552 5552 5552 5551 5550 5550 5550 5550 5550 5550 5551 5552 5553 5554 5555 5555 5555 5554 5553 5552 5550 5549 5547
5536 5536 5538 5537 5535 5535 5540 5539 5540 5541 5548 5543 5545 5546 5547 5546 5545 5546 5547 5547 5547 5547 5546 5546 5545 5544 5543 5543 5543 5543 5544 5545 5546 5547 5548 5549 5549 5548 5548 5547 5546 5545 5542 5540
5528 5528 5530 5531 5530 5528 5533 5534 5534 5535 5537 5538 5539 5541 5541 5541 5542 5542 5542 5542 5542 5541 5540 5538 5537 5537 5537 5537 5536 5537 5538 5540 5541 5542 5542 5543 5543 5542 5541 5540 5540 5538 5536 5533
5521 5522 5522 5524 5525 5524 5525 5527 5529 5530 5531 5532 5533 5535 5536 5536 5537 5538 5538 5537 5536 5535 5533 5532 5531 5531 5531 5531 5531 5531 5533 5534 5535 5536 5536 5536 5536 5536 5534 5533 5532 5530 5528 5525
5511 5512 5513 5515 5519 5518 5520 5521 5522 5524 5526 5527 5528 5529 5530 5531 5532 5532 5532 5532 5531 5529 5527 5526 5526 5526 5526 5526 5525 5526 5527 5528 5529 5530 5529 5529 5529 5529 5527 5526 5524 5522 5520 5517
5505 5506 5507 5509 5511 5512 5515 5515 5517 5519 5520 5520 5521 5523 5524 5526 5527 5527 5527 5527 5525 5524 5522 5521 5520 5520 5520 5520 5520 5521 5521 5522 5522 5523 5522 5522 5522 5521 5520 5518 5516 5513 5510 5508
5500 5500 5500 5502 5504 5501 5509 5510 5512 5513 5514 5515 5516 5516 5518 5520 5521 5521 5522 5521 5520 5518 5517 5515 5515 5515 5515 5514 5514 5515 5515 5515 5515 5515 5515 5515 5515 5514 5512 5510 5507 5504 5501 5498